Volver al catálogo

STARLINK-11404

ActivoComunicacionesVLEO
NORAD 62019·PAYLOAD·🇺🇸 United States

Lanzado Nov 18, 2024 desde Vandenberg Space Force Base

Loading…

Próximos Pases (próximas 24 horas)

TLE

ActualizadoSource: CelesTrak SupGP

Época: Sep 14, 2026, 21:12 UTC

1 62019C 24213M   26257.88381944  .00025258  00000+0  20799-3 0  2575
2 62019  53.1571 188.9383 0001202  91.5712 341.8236 15.69705337    16

Sigue STARLINK-11404 en tiempo real con AllMySat

Download on the App Store